Ozona, TX

9:00 AM CDT on June 29, 2017 (GMT -0500)
Ozona Municipal

Weather History for KOZA - January, 2012

Change the Weather History Date:

Monday, January 23, 2012

  Actual Average Record
Temperature  
Mean Temperature 50 °F -  
Max Temperature 70 °F 60 °F 75 °F (2017)
Min Temperature 31 °F 29 °F 23 °F (2016)
Degree Days  
Heating Degree Days 14    
Moisture  
Dew Point 21 °F    
Average Humidity 34    
Maximum Humidity 60    
Minimum Humidity 16    
Precipitation  
Precipitation 0.00 in - - ()
Sea Level Pressure  
Sea Level Pressure 30.07 in    
Wind  
Wind Speed 5 mph (SE)    
Max Wind Speed 12 mph    
Max Gust Speed 16 mph    
Visibility 10 miles    
Events      
Averages and records for this station are not official NWS values.
T = Trace of Precipitation, MM = Missing Value Source: NWS Daily Summary

Daily Weather History Graph

Daily Weather History Graph

Search for Another Location

Airport or City:

Trip Planner

Search our weather history database for the weather conditions in past years. The results will help you decide how hot, cold, wet, or windy it might be!

Date:

Astronomy

Jan. 23, 2012 Rise Set
Actual Time 7:40 AM CST 6:12 PM CST
Civil Twilight 7:15 AM CST 6:38 PM CST
Nautical Twilight 6:45 AM CST 7:07 PM CST
Astronomical Twilight 6:17 AM CST 7:36 PM CST
Moon 7:42 AM CST (1/23) 6:56 PM CST (1/23)
Length of Visible Light 11h 22m
Length of Day
10h 31m
New Moon, 0% of the Moon is Illuminated
Jan 23
New Moon
Jan 30
First Quarter
Feb 7
Full
Feb 14
Last Quarter
Feb 21
New

Hourly Weather History & Observations

Time (CST) Temp. Windchill Dew Point Humidity Pressure Visibility Wind Dir Wind Speed Gust Speed Precip Events Conditions
12:15 AM 55.0 °F - 12.4 °F 18% 30.02 in 10.0 mi NNW 5.8 mph - N/A   Clear
12:55 AM 50.5 °F - 13.5 °F 23% 30.04 in 10.0 mi North 6.9 mph - N/A   Clear
1:15 AM 47.3 °F - 14.0 °F 26% 30.05 in 10.0 mi North 5.8 mph - N/A   Clear
1:35 AM 45.1 °F 42.8 °F 14.5 °F 29% 30.06 in 10.0 mi North 4.6 mph - N/A   Clear
1:55 AM 42.8 °F 40.1 °F 14.2 °F 31% 30.07 in 10.0 mi NNE 4.6 mph - N/A   Clear
2:35 AM 39.6 °F 36.3 °F 14.2 °F 36% 30.08 in 10.0 mi NNE 4.6 mph - N/A   Clear
2:55 AM 39.7 °F 37.6 °F 14.9 °F 36% 30.08 in 10.0 mi NE 3.5 mph - N/A   Clear
3:15 AM 38.5 °F 36.1 °F 14.9 °F 38% 30.09 in 10.0 mi NE 3.5 mph - N/A   Clear
3:35 AM 37.6 °F - 15.4 °F 41% 30.10 in 10.0 mi Calm Calm - N/A   Clear
3:55 AM 35.8 °F - 16.3 °F 45% 30.10 in 10.0 mi Calm Calm - N/A   Clear
4:15 AM 34.7 °F 31.8 °F 16.7 °F 48% 30.10 in 10.0 mi NNE 3.5 mph - N/A   Clear
4:35 AM 34.0 °F 28.8 °F 15.8 °F 47% 30.11 in 10.0 mi NNE 5.8 mph - N/A   Clear
4:55 AM 33.8 °F 29.6 °F 16.3 °F 49% 30.11 in 10.0 mi NE 4.6 mph - N/A   Clear
5:15 AM 34.0 °F 28.0 °F 16.5 °F 49% 30.11 in 10.0 mi NNE 6.9 mph - N/A   Clear
5:35 AM 32.2 °F 26.7 °F 16.5 °F 53% 30.10 in 10.0 mi NNE 5.8 mph - N/A   Clear
5:55 AM 31.8 °F 26.2 °F 17.1 °F 55% 30.10 in 10.0 mi NNE 5.8 mph - N/A   Clear
6:15 AM 32.7 °F 27.3 °F 17.6 °F 54% 30.10 in 10.0 mi NNE 5.8 mph - N/A   Clear
6:35 AM 32.7 °F 29.6 °F 17.8 °F 54% 30.11 in 10.0 mi NNE 3.5 mph - N/A   Clear
6:55 AM 32.5 °F 29.3 °F 18.1 °F 55% 30.11 in 10.0 mi NNE 3.5 mph - N/A   Clear
7:15 AM 32.2 °F 27.7 °F 18.3 °F 57% 30.12 in 10.0 mi North 4.6 mph - N/A   Clear
7:55 AM 32.0 °F - 19.2 °F 59% 30.14 in 10.0 mi Calm Calm - N/A   Clear
8:15 AM 31.8 °F - 19.4 °F 60% 30.14 in 10.0 mi Calm Calm - N/A   Clear
8:35 AM 33.3 °F - 19.8 °F 58% 30.14 in 10.0 mi Calm Calm - N/A   Clear
9:15 AM 41.4 °F - 24.4 °F 51% 30.16 in 10.0 mi Calm Calm - N/A   Clear
9:55 AM 49.8 °F - 29.3 °F 45% 30.17 in 10.0 mi ESE 6.9 mph - N/A   Clear
10:15 AM 53.2 °F - 28.9 °F 39% 30.17 in 10.0 mi SE 8.1 mph - N/A   Clear
10:35 AM 54.9 °F - 28.9 °F 37% 30.17 in 10.0 mi ESE 6.9 mph - N/A   Clear
10:55 AM 56.3 °F - 29.3 °F 36% 30.17 in 10.0 mi SE 8.1 mph - N/A   Clear
11:15 AM 58.3 °F - 29.1 °F 33% 30.16 in 10.0 mi South 8.1 mph - N/A   Clear
11:35 AM 59.9 °F - 28.4 °F 30% 30.15 in 10.0 mi South 6.9 mph - N/A   Clear
11:55 AM 61.5 °F - 27.5 °F 28% 30.13 in 10.0 mi South 9.2 mph - N/A   Clear
12:15 PM 63.0 °F - 27.1 °F 26% 30.11 in 10.0 mi South 6.9 mph - N/A   Clear
12:35 PM 64.4 °F - 27.5 °F 25% 30.09 in 10.0 mi SSE 8.1 mph - N/A   Clear
12:55 PM 65.5 °F - 26.2 °F 23% 30.07 in 10.0 mi SSE 10.4 mph 16.1 mph N/A   Clear
1:35 PM 66.7 °F - 25.3 °F 21% 30.05 in 10.0 mi SSW 5.8 mph - N/A   Clear
2:35 PM 68.9 °F - 22.5 °F 17% 30.02 in 10.0 mi SSW 6.9 mph - N/A   Clear
3:15 PM 69.8 °F - 22.5 °F 17% 30.00 in 10.0 mi South 8.1 mph - N/A   Clear
3:35 PM 70.0 °F - 22.6 °F 17% 30.00 in 10.0 mi South 11.5 mph - N/A   Clear
3:55 PM 70.0 °F - 22.1 °F 16% 29.99 in 10.0 mi SW 5.8 mph - N/A   Clear
4:15 PM 70.2 °F - 21.2 °F 16% 29.98 in 10.0 mi South 11.5 mph - N/A   Clear
4:35 PM 70.2 °F - 21.0 °F 16% 29.98 in 10.0 mi SSW 11.5 mph - N/A   Clear
4:55 PM 69.4 °F - 21.2 °F 16% 29.98 in 10.0 mi SSW 10.4 mph - N/A   Clear
5:15 PM 68.9 °F - 21.6 °F 17% 29.98 in 10.0 mi South 9.2 mph - N/A   Clear
5:35 PM 68.2 °F - 20.7 °F 16% 29.98 in 10.0 mi South 11.5 mph 16.1 mph N/A   Clear
5:55 PM 66.6 °F - 19.9 °F 17% 29.98 in 10.0 mi South 8.1 mph - N/A   Clear
6:35 PM 61.2 °F - 20.3 °F 21% 29.98 in 10.0 mi South 6.9 mph - N/A   Clear
6:55 PM 59.0 °F - 20.8 °F 23% 29.99 in 10.0 mi SSE 5.8 mph - N/A   Clear
7:15 PM 57.9 °F - 21.2 °F 24% 30.00 in 10.0 mi Calm Calm - N/A   Clear
7:35 PM 56.7 °F - 21.2 °F 25% 30.00 in 10.0 mi SSE 3.5 mph - N/A   Clear
7:55 PM 50.7 °F - 21.6 °F 32% 30.01 in 10.0 mi Calm Calm - N/A   Clear
8:15 PM 47.7 °F - 20.8 °F 35% 30.01 in 10.0 mi Calm Calm - N/A   Clear
8:35 PM 45.7 °F 43.4 °F 20.3 °F 37% 30.01 in 10.0 mi SSE 4.6 mph - N/A   Clear
8:55 PM 44.8 °F 42.4 °F 20.7 °F 38% 30.01 in 10.0 mi SSE 4.6 mph - N/A   Clear
9:15 PM 45.9 °F 40.8 °F 21.7 °F 38% 30.01 in 10.0 mi South 10.4 mph - N/A   Clear
9:35 PM 49.5 °F - 22.3 °F 34% 30.01 in 10.0 mi South 8.1 mph - N/A   Clear
9:55 PM 52.9 °F - 22.8 °F 31% 30.01 in 10.0 mi South 5.8 mph - N/A   Clear
10:15 PM 54.0 °F - 23.0 °F 30% 30.01 in 10.0 mi SSE 4.6 mph - N/A   Clear
10:35 PM 53.6 °F - 23.5 °F 31% 30.00 in 10.0 mi SSE 8.1 mph - N/A   Clear
10:55 PM 53.1 °F - 24.6 °F 33% 30.00 in 10.0 mi SSE 11.5 mph - N/A   Clear
11:15 PM 54.5 °F - 25.7 °F 33% 30.00 in 10.0 mi South 10.4 mph 16.1 mph N/A   Clear
11:35 PM 54.1 °F - 26.4 °F 34% 30.00 in 10.0 mi South 10.4 mph - N/A   Clear
11:55 PM 54.3 °F - 27.3 °F 35% 29.99 in 10.0 mi South 6.9 mph - N/A   Clear